Zurück zum Katalog

COSMOS 1766

AktivNavigationPO
NORAD 16881·PAYLOAD·🇷🇺 Russia

Gestartet Jul 28, 1986 von Plesetsk Cosmodrome

Loading…

Nächste Überflüge (nächste 24 Stunden)

TLE

AktuellSource: Space-Track

Epoche: Sep 14, 2026, 00:33 UTC

1 16881U 86055A   26257.02327217  .00026658  00000-0  32673-3 0  9995
2 16881  82.4800 270.9075 0005546 181.5121 178.6120 15.60176469172883

Verfolge COSMOS 1766 in Echtzeit mit AllMySat

Download on the App Store